This demonstration page uses our WeatherBlox Daily Observations layout. Learn more.

Left ArrowRight Arrow

41.12389, -100.76542

Hourly Observations for March 6, 2020

Temp ( °F °C ) Dew Point ( °F °C ) Humidity (%) Winds ( mph kmh ) Pressure ( in mb ) Visibility ( mi km ) Precip ( " mm )
12:53 am 00:53 Clear 23 -5 13 -10.6 65 65 Calm 30.48 1032 10 16 0.00 0.00
1:53 am 01:53 Clear 21 -6.1 13 -10.6 71 71 Calm 30.48 1032 10 16 0.00 0.00
2:53 am 02:53 Clear 20 -6.7 12 -11.1 71 71 ESE 5 7 30.48 1032 10 16 0.00 0.00
3:53 am 03:53 Clear 19 -7.2 12 -11.1 74 74 SE 6 9 30.46 1032 10 16 0.00 0.00
4:53 am 04:53 Clear 21 -6.1 13 -10.6 71 71 SE 9 15 30.45 1031 10 16 0.00 0.00
5:53 am 05:53 Clear 22 -5.6 15 -9.4 75 75 SE 9 15 30.45 1031 10 16 0.00 0.00
6:53 am 06:53 Clear 21 -6.1 15 -9.4 78 78 SE 9 15 30.46 1031 10 16 0.00 0.00
7:53 am 07:53 Sunny 26 -3.3 18 -7.8 71 71 SE 10 17 30.45 1031 10 16 0.00 0.00
8:53 am 08:53 Sunny 34 1.1 23 -5 64 64 SE 8 13 30.44 1031 10 16 0.00 0.00
9:53 am 09:53 Sunny 46 7.8 16 -8.9 30 30 S 10 17 30.40 1030 10 16 0.00 0.00
10:53 am 10:53 Sunny 50 10 20 -6.7 30 30 S 14 22 30.38 1029 10 16 0.00 0.00
11:53 am 11:53 Sunny 54 12.2 21 -6.1 28 28 SSW 17 28 30.35 1028 10 16 0.00 0.00
12:53 pm 12:53 Sunny 58 14.4 22 -5.6 25 25 S 15 24 30.30 1026 10 16 0.00 0.00
1:53 pm 13:53 Sunny 62 16.7 24 -4.4 23 23 S 14 22 30.25 1025 10 16 0.00 0.00
2:53 pm 14:53 Sunny 65 18.3 25 -3.9 22 22 S 15 24 30.20 1023 10 16 0.00 0.00
3:53 pm 15:53 Sunny 67 19.4 27 -2.8 22 22 S 16 26 30.18 1022 10 16 0.00 0.00
4:53 pm 16:53 Sunny 65 18.3 27 -2.8 24 24 S 15 24 30.16 1021 10 16 0.00 0.00
5:53 pm 17:53 Sunny 61 16.1 27 -2.8 27 27 SE 17 28 30.16 1021 10 16 0.00 0.00
6:53 pm 18:53 Clear 50 10 26 -3.3 39 39 SE 10 17 30.18 1022 10 16 0.00 0.00
7:53 pm 19:53 Clear 44 6.7 26 -3.3 49 49 SE 12 19 30.19 1022 10 16 0.00 0.00
8:53 pm 20:53 Clear 40 4.4 26 -3.3 58 58 SE 12 19 30.17 1022 10 16 0.00 0.00
9:53 pm 21:53 Clear 39 3.9 26 -3.3 60 60 SE 10 17 30.15 1021 10 16 0.00 0.00
10:53 pm 22:53 Clear 47 8.3 25 -3.9 42 42 SSE 14 22 30.11 1020 10 16 0.00 0.00
11:53 pm 23:53 Clear 45 7.2 25 -3.9 46 46 S 8 13 30.09 1019 10 16 0.00 0.00

Powered by AerisWeather